N750GK KAVL-KBCT

Flight info

Callsign N750GK
Flight time 1h 25m
Altitude 38000
Route QUIWE Q93 KENLL CPTAN3
Aircraft C750/M-VGDW/C

Departure

Time 2026-04-15 04:19
Airport Asheville Regional Airport (KAVL)

Arrival

Time 2026-04-15 05:45
Airport Boca Raton Airport (KBCT)
Time Latitude Longitude Altitude Speed Heading
2026-04-15 04:08 35.43793 -82.54001 2156 ft 0 kts 70°
2026-04-15 04:14 35.43787 -82.53996 2154 ft 3 kts 155°
2026-04-15 04:15 35.43738 -82.53982 2155 ft 10 kts 169°
2026-04-15 04:15 35.43674 -82.53972 2156 ft 8 kts 203°
2026-04-15 04:15 35.43647 -82.54042 2153 ft 10 kts 251°
2026-04-15 04:15 35.43596 -82.54054 2149 ft 9 kts 160°
2026-04-15 04:16 35.43522 -82.54021 2148 ft 13 kts 160°
2026-04-15 04:16 35.43428 -82.53980 2144 ft 15 kts 160°
2026-04-15 04:16 35.43327 -82.53934 2143 ft 15 kts 160°
2026-04-15 04:16 35.43228 -82.53891 2143 ft 16 kts 160°
2026-04-15 04:17 35.43119 -82.53843 2141 ft 17 kts 160°
2026-04-15 04:17 35.43000 -82.53789 2138 ft 18 kts 159°
2026-04-15 04:17 35.42880 -82.53735 2135 ft 19 kts 160°
2026-04-15 04:17 35.42750 -82.53676 2130 ft 20 kts 160°
2026-04-15 04:18 35.42651 -82.53634 2129 ft 6 kts 173°
2026-04-15 04:18 35.42624 -82.53651 2129 ft 5 kts 232°
2026-04-15 04:18 35.42604 -82.53710 2131 ft 8 kts 250°
2026-04-15 04:18 35.42624 -82.53763 2132 ft 7 kts 336°
2026-04-15 04:19 35.42781 -82.53834 2137 ft 70 kts 340°
2026-04-15 04:19 35.43581 -82.54194 2189 ft 154 kts 340°
2026-04-15 04:19 35.44641 -82.54675 2768 ft 172 kts 340°
2026-04-15 04:19 35.45804 -82.55189 3455 ft 184 kts 338°
2026-04-15 04:20 35.47091 -82.55640 4155 ft 202 kts 349°
2026-04-15 04:20 35.48501 -82.55139 4772 ft 230 kts 36°
2026-04-15 04:20 35.49355 -82.53413 5431 ft 250 kts 78°
2026-04-15 04:20 35.49136 -82.51245 5992 ft 271 kts 115°
2026-04-15 04:21 35.47870 -82.49486 6653 ft 279 kts 146°
2026-04-15 04:21 35.46234 -82.48276 7620 ft 279 kts 154°
2026-04-15 04:21 35.44467 -82.47196 8631 ft 288 kts 155°
2026-04-15 04:21 35.42664 -82.46053 9544 ft 295 kts 154°
2026-04-15 04:22 35.40839 -82.44816 10403 ft 303 kts 153°
2026-04-15 04:22 35.38916 -82.43523 10800 ft 329 kts 153°
2026-04-15 04:22 35.36809 -82.42140 10935 ft 357 kts 153°
2026-04-15 04:22 35.34596 -82.40685 11340 ft 368 kts 153°
2026-04-15 04:23 35.32343 -82.39186 12246 ft 369 kts 153°
2026-04-15 04:23 35.30067 -82.37678 12909 ft 374 kts 153°
2026-04-15 04:23 35.27758 -82.36158 13646 ft 378 kts 153°
2026-04-15 04:23 35.25429 -82.34624 14305 ft 383 kts 153°
2026-04-15 04:24 35.23062 -82.33061 14826 ft 390 kts 153°
2026-04-15 04:24 35.20660 -82.31476 15480 ft 394 kts 153°
2026-04-15 04:24 35.18235 -82.29880 16107 ft 399 kts 153°
2026-04-15 04:24 35.15814 -82.28288 16767 ft 402 kts 153°
2026-04-15 04:25 35.13335 -82.26658 17441 ft 407 kts 153°
2026-04-15 04:25 35.10825 -82.25008 18132 ft 411 kts 153°
2026-04-15 04:25 35.08288 -82.23341 18771 ft 416 kts 153°
2026-04-15 04:25 35.05724 -82.21659 19395 ft 421 kts 153°
2026-04-15 04:26 35.03128 -82.19957 20029 ft 426 kts 154°
2026-04-15 04:26 35.00502 -82.18237 20659 ft 430 kts 154°
2026-04-15 04:26 34.97847 -82.16497 21275 ft 435 kts 154°
2026-04-15 04:26 34.95165 -82.14742 21904 ft 440 kts 154°
2026-04-15 04:27 34.92450 -82.12968 22541 ft 445 kts 154°
2026-04-15 04:27 34.89705 -82.11175 23168 ft 450 kts 154°
2026-04-15 04:27 34.86934 -82.09366 23783 ft 455 kts 154°
2026-04-15 04:27 34.84128 -82.07535 24313 ft 459 kts 154°
2026-04-15 04:28 34.81299 -82.05690 24874 ft 462 kts 154°
2026-04-15 04:28 34.78449 -82.03835 25435 ft 466 kts 154°
2026-04-15 04:28 34.75612 -82.01989 25968 ft 469 kts 154°
2026-04-15 04:28 34.72723 -82.00110 26495 ft 473 kts 154°
2026-04-15 04:29 34.69814 -81.98220 27112 ft 475 kts 154°
2026-04-15 04:29 34.66888 -81.96320 27636 ft 479 kts 155°
2026-04-15 04:29 34.63942 -81.94410 28159 ft 482 kts 155°
2026-04-15 04:29 34.60968 -81.92482 28688 ft 486 kts 155°
2026-04-15 04:30 34.57972 -81.90541 29196 ft 490 kts 155°
2026-04-15 04:30 34.54948 -81.88585 29689 ft 493 kts 155°
2026-04-15 04:30 34.51907 -81.86618 30169 ft 497 kts 155°
2026-04-15 04:30 34.48848 -81.84643 30592 ft 500 kts 155°
2026-04-15 04:31 34.45802 -81.82676 30998 ft 503 kts 155°
2026-04-15 04:31 34.42716 -81.80685 31583 ft 501 kts 155°
2026-04-15 04:31 34.39648 -81.78706 32232 ft 499 kts 155°
2026-04-15 04:31 34.36584 -81.76734 32835 ft 497 kts 155°
2026-04-15 04:32 34.33527 -81.74769 33440 ft 496 kts 155°
2026-04-15 04:32 34.30479 -81.72810 34051 ft 495 kts 156°
2026-04-15 04:32 34.27443 -81.70859 34607 ft 494 kts 156°
2026-04-15 04:32 34.24406 -81.68910 35134 ft 493 kts 156°
2026-04-15 04:33 34.21378 -81.66969 35661 ft 493 kts 156°
2026-04-15 04:33 34.18347 -81.65028 36170 ft 492 kts 155°
2026-04-15 04:33 34.15317 -81.63088 36684 ft 492 kts 155°
2026-04-15 04:33 34.12284 -81.61147 37171 ft 494 kts 155°
2026-04-15 04:34 34.09255 -81.59215 37177 ft 505 kts 155°
2026-04-15 04:34 34.06101 -81.57205 37175 ft 517 kts 155°
2026-04-15 04:34 34.02881 -81.55148 37170 ft 528 kts 155°
2026-04-15 04:35 33.96191 -81.51122 37161 ft 544 kts 162°
2026-04-15 04:35 33.88902 -81.49021 37167 ft 543 kts 177°
2026-04-15 04:36 33.81376 -81.48375 37180 ft 542 kts 181°
2026-04-15 04:36 33.73835 -81.47384 37169 ft 546 kts 175°
2026-04-15 04:37 33.66300 -81.46287 37170 ft 543 kts 179°
2026-04-15 04:37 33.58760 -81.45369 37168 ft 546 kts 176°
2026-04-15 04:38 33.51212 -81.44271 37176 ft 545 kts 178°
2026-04-15 04:38 33.43704 -81.43341 37185 ft 546 kts 177°
2026-04-15 04:39 33.36166 -81.42278 37196 ft 543 kts 177°
2026-04-15 04:39 33.28647 -81.41312 37195 ft 544 kts 176°
2026-04-15 04:40 33.21199 -81.39502 37201 ft 548 kts 170°
2026-04-15 04:40 33.13729 -81.37581 37201 ft 547 kts 172°
2026-04-15 04:41 33.06268 -81.35722 37195 ft 548 kts 171°
2026-04-15 04:41 32.98821 -81.33808 37203 ft 547 kts 172°
2026-04-15 04:42 32.91417 -81.31965 37203 ft 547 kts 171°
2026-04-15 04:42 32.83972 -81.30067 37191 ft 547 kts 171°
2026-04-15 04:43 32.76524 -81.28208 37196 ft 546 kts 171°
2026-04-15 04:43 32.69065 -81.26324 37194 ft 548 kts 171°
2026-04-15 04:44 32.61599 -81.24459 37198 ft 548 kts 171°
2026-04-15 04:44 32.54133 -81.22586 37186 ft 549 kts 171°
2026-04-15 04:45 32.46624 -81.21196 37188 ft 543 kts 181°
2026-04-15 04:45 32.39109 -81.21620 37200 ft 539 kts 188°
2026-04-15 04:46 32.32864 -81.21987 37217 ft 542 kts 184°
2026-04-15 04:46 32.21613 -81.22518 37220 ft 540 kts 187°
2026-04-15 04:47 32.14080 -81.22851 37220 ft 541 kts 185°
2026-04-15 04:47 32.05328 -81.23313 37219 ft 541 kts 186°
2026-04-15 04:48 31.99013 -81.23614 37179 ft 542 kts 185°
2026-04-15 04:48 31.91509 -81.23213 37179 ft 546 kts 176°
2026-04-15 04:49 31.83967 -81.22141 37191 ft 546 kts 176°
2026-04-15 04:49 31.76401 -81.21287 37193 ft 546 kts 176°
2026-04-15 04:50 31.68842 -81.20280 37187 ft 546 kts 176°
2026-04-15 04:50 31.61286 -81.19379 37193 ft 546 kts 176°
2026-04-15 04:51 31.53739 -81.18416 37201 ft 546 kts 176°
2026-04-15 04:51 31.46226 -81.17496 37194 ft 546 kts 176°
2026-04-15 04:52 31.38662 -81.16551 37200 ft 546 kts 176°
2026-04-15 04:52 31.31099 -81.15633 37199 ft 546 kts 176°
2026-04-15 04:53 31.23535 -81.14721 37201 ft 546 kts 176°
2026-04-15 04:53 31.15980 -81.13803 37203 ft 546 kts 176°
2026-04-15 04:54 31.08460 -81.12900 37206 ft 546 kts 176°
2026-04-15 04:54 31.00890 -81.11984 37206 ft 546 kts 176°
2026-04-15 04:55 30.93322 -81.11076 37200 ft 546 kts 175°
2026-04-15 04:55 30.85797 -81.10170 37198 ft 546 kts 175°
2026-04-15 04:56 30.78232 -81.09264 37195 ft 546 kts 175°
2026-04-15 04:56 30.70666 -81.08358 37204 ft 546 kts 176°
2026-04-15 04:57 30.63097 -81.07491 37197 ft 546 kts 178°
2026-04-15 04:57 30.55521 -81.07798 37209 ft 544 kts 186°
2026-04-15 04:58 30.47954 -81.08324 37217 ft 545 kts 184°
2026-04-15 04:58 30.40372 -81.08712 37218 ft 545 kts 185°
2026-04-15 04:59 30.32851 -81.09224 37215 ft 545 kts 184°
2026-04-15 04:59 30.25274 -81.09629 37215 ft 545 kts 185°
2026-04-15 05:00 30.17703 -81.10119 37219 ft 545 kts 185°
2026-04-15 05:00 30.10124 -81.10547 37224 ft 545 kts 185°
2026-04-15 05:01 30.02533 -81.11017 37228 ft 545 kts 184°
2026-04-15 05:01 29.94997 -81.11455 37224 ft 545 kts 184°
2026-04-15 05:02 29.87414 -81.11913 37226 ft 545 kts 184°
2026-04-15 05:02 29.79824 -81.12273 37223 ft 546 kts 182°
2026-04-15 05:03 29.72210 -81.12279 37225 ft 546 kts 181°
2026-04-15 05:03 29.64659 -81.12338 37226 ft 546 kts 181°
2026-04-15 05:04 29.57022 -81.11943 37214 ft 548 kts 172°
2026-04-15 05:04 29.49763 -81.09496 37225 ft 548 kts 159°
2026-04-15 05:05 29.42711 -81.06129 37236 ft 549 kts 158°
2026-04-15 05:05 29.35470 -81.03322 37233 ft 549 kts 162°
2026-04-15 05:06 29.28300 -81.00275 37231 ft 549 kts 159°
2026-04-15 05:06 29.21114 -80.97343 37226 ft 548 kts 161°
2026-04-15 05:07 29.13935 -80.94389 37228 ft 548 kts 159°
2026-04-15 05:07 29.06803 -80.91438 37227 ft 548 kts 161°
2026-04-15 05:08 28.99618 -80.88514 37230 ft 548 kts 160°
2026-04-15 05:08 28.92441 -80.85547 37222 ft 548 kts 160°
2026-04-15 05:09 28.85261 -80.82634 37221 ft 547 kts 160°
2026-04-15 05:09 28.78085 -80.79687 37219 ft 547 kts 160°
2026-04-15 05:10 28.70945 -80.76788 37219 ft 548 kts 160°
2026-04-15 05:10 28.63755 -80.73853 37217 ft 548 kts 160°
2026-04-15 05:11 28.56577 -80.70941 37208 ft 547 kts 160°
2026-04-15 05:11 28.53062 -80.69513 36599 ft 525 kts 160°
2026-04-15 05:11 28.49685 -80.68141 35919 ft 505 kts 160°
2026-04-15 05:12 28.46431 -80.66822 35266 ft 488 kts 160°
2026-04-15 05:12 28.43269 -80.65542 34628 ft 479 kts 160°
2026-04-15 05:12 28.40171 -80.64286 33982 ft 479 kts 160°
2026-04-15 05:12 28.37020 -80.63011 33345 ft 483 kts 160°
2026-04-15 05:13 28.33839 -80.61725 32694 ft 486 kts 159°
2026-04-15 05:13 28.30644 -80.60434 32048 ft 488 kts 159°
2026-04-15 05:13 28.27438 -80.59138 31403 ft 490 kts 159°
2026-04-15 05:13 28.24212 -80.57836 30754 ft 494 kts 159°
2026-04-15 05:14 28.20992 -80.56537 30073 ft 489 kts 159°
2026-04-15 05:14 28.17809 -80.55254 29407 ft 482 kts 159°
2026-04-15 05:14 28.14663 -80.53986 28785 ft 477 kts 159°
2026-04-15 05:14 28.11549 -80.52732 28162 ft 472 kts 159°
2026-04-15 05:15 28.08464 -80.51491 27552 ft 468 kts 159°
2026-04-15 05:15 28.05404 -80.50260 26937 ft 464 kts 159°
2026-04-15 05:15 28.02379 -80.49045 26329 ft 457 kts 159°
2026-04-15 05:15 27.99394 -80.47845 25728 ft 453 kts 160°
2026-04-15 05:16 27.96458 -80.46666 25129 ft 438 kts 160°
2026-04-15 05:16 27.93644 -80.45539 24574 ft 421 kts 160°
2026-04-15 05:16 27.90907 -80.44440 23841 ft 417 kts 160°
2026-04-15 05:16 27.88196 -80.43351 22815 ft 410 kts 160°
2026-04-15 05:17 27.85568 -80.42297 21837 ft 402 kts 160°
2026-04-15 05:17 27.82965 -80.41254 21235 ft 392 kts 160°
2026-04-15 05:17 27.80408 -80.40229 20790 ft 389 kts 160°
2026-04-15 05:17 27.77834 -80.39197 20362 ft 390 kts 160°
2026-04-15 05:18 27.75267 -80.38170 19931 ft 390 kts 160°
2026-04-15 05:18 27.72746 -80.37162 19508 ft 388 kts 160°
2026-04-15 05:18 27.70219 -80.36151 19074 ft 384 kts 160°
2026-04-15 05:18 27.67701 -80.35144 18654 ft 382 kts 160°
2026-04-15 05:19 27.65244 -80.34031 18188 ft 379 kts 154°
2026-04-15 05:19 27.62873 -80.32754 17774 ft 377 kts 154°
2026-04-15 05:19 27.60501 -80.31512 17359 ft 375 kts 154°
2026-04-15 05:19 27.58139 -80.30280 16945 ft 373 kts 154°
2026-04-15 05:20 27.55796 -80.29039 16534 ft 371 kts 154°
2026-04-15 05:20 27.53462 -80.27800 16124 ft 369 kts 154°
2026-04-15 05:20 27.51139 -80.26576 15717 ft 367 kts 154°
2026-04-15 05:20 27.48833 -80.25364 15311 ft 365 kts 154°
2026-04-15 05:21 27.46535 -80.24152 14909 ft 363 kts 154°
2026-04-15 05:21 27.44250 -80.22948 14508 ft 361 kts 154°
2026-04-15 05:21 27.42005 -80.21765 14110 ft 360 kts 154°
2026-04-15 05:21 27.39742 -80.20575 13686 ft 357 kts 154°
2026-04-15 05:22 27.37497 -80.19394 13287 ft 354 kts 154°
2026-04-15 05:22 27.35274 -80.18226 12899 ft 351 kts 154°
2026-04-15 05:22 27.33057 -80.17060 12512 ft 350 kts 154°
2026-04-15 05:22 27.30857 -80.15905 12124 ft 345 kts 154°
2026-04-15 05:23 27.28746 -80.14797 11746 ft 324 kts 154°
2026-04-15 05:23 27.26752 -80.13750 11400 ft 311 kts 154°
2026-04-15 05:23 27.24786 -80.12793 11056 ft 305 kts 159°
2026-04-15 05:23 27.22872 -80.11886 10732 ft 302 kts 155°
2026-04-15 05:24 27.20972 -80.10897 10405 ft 300 kts 155°
2026-04-15 05:24 27.19073 -80.09959 10073 ft 297 kts 156°
2026-04-15 05:24 27.17176 -80.09063 9719 ft 294 kts 157°
2026-04-15 05:24 27.15301 -80.08163 9397 ft 292 kts 156°
2026-04-15 05:25 27.13422 -80.07326 9046 ft 290 kts 163°
2026-04-15 05:25 27.11441 -80.06949 8747 ft 289 kts 171°
2026-04-15 05:25 27.09434 -80.06659 8299 ft 290 kts 171°
2026-04-15 05:25 27.07457 -80.06343 7931 ft 284 kts 168°
2026-04-15 05:26 27.05507 -80.06006 7603 ft 282 kts 169°
2026-04-15 05:26 27.03576 -80.05682 7289 ft 280 kts 169°
2026-04-15 05:26 27.01652 -80.05368 6980 ft 279 kts 169°
2026-04-15 05:26 26.99765 -80.05059 6672 ft 274 kts 169°
2026-04-15 05:27 26.97899 -80.04751 6353 ft 270 kts 167°
2026-04-15 05:27 26.96032 -80.04440 6040 ft 272 kts 169°
2026-04-15 05:27 26.94162 -80.04131 5758 ft 272 kts 169°
2026-04-15 05:27 26.92276 -80.03821 5450 ft 272 kts 169°
2026-04-15 05:28 26.90409 -80.03572 5119 ft 271 kts 176°
2026-04-15 05:28 26.88587 -80.04084 4959 ft 274 kts 202°
2026-04-15 05:28 26.86995 -80.05280 5003 ft 278 kts 216°
2026-04-15 05:28 26.85490 -80.06609 5011 ft 277 kts 216°
2026-04-15 05:29 26.83849 -80.07672 4954 ft 259 kts 196°
2026-04-15 05:29 26.82235 -80.08225 4986 ft 232 kts 194°
2026-04-15 05:29 26.80703 -80.08761 4989 ft 231 kts 195°
2026-04-15 05:29 26.79174 -80.09313 4992 ft 231 kts 196°
2026-04-15 05:30 26.77628 -80.09810 4973 ft 229 kts 187°
2026-04-15 05:30 26.76083 -80.09769 5003 ft 228 kts 171°
2026-04-15 05:30 26.74516 -80.09638 5011 ft 229 kts 172°
2026-04-15 05:30 26.72948 -80.09536 5014 ft 224 kts 173°
2026-04-15 05:31 26.71370 -80.09438 5015 ft 225 kts 174°
2026-04-15 05:31 26.69801 -80.09335 5015 ft 225 kts 173°
2026-04-15 05:31 26.68234 -80.09229 5014 ft 226 kts 174°
2026-04-15 05:31 26.66671 -80.09126 5016 ft 225 kts 173°
2026-04-15 05:32 26.65110 -80.09023 5013 ft 224 kts 174°
2026-04-15 05:32 26.63565 -80.08921 5012 ft 223 kts 172°
2026-04-15 05:32 26.61999 -80.08818 5013 ft 227 kts 174°
2026-04-15 05:32 26.60448 -80.09080 4966 ft 230 kts 199°
2026-04-15 05:33 26.58974 -80.09818 5016 ft 231 kts 200°
2026-04-15 05:33 26.57492 -80.10538 5019 ft 231 kts 199°
2026-04-15 05:33 26.56074 -80.11434 4989 ft 238 kts 215°
2026-04-15 05:33 26.54813 -80.12601 5013 ft 233 kts 218°
2026-04-15 05:34 26.53547 -80.13763 5009 ft 234 kts 217°
2026-04-15 05:34 26.52290 -80.14894 5008 ft 234 kts 215°
2026-04-15 05:34 26.51053 -80.16008 4972 ft 229 kts 216°
2026-04-15 05:34 26.49806 -80.17134 4827 ft 230 kts 216°
2026-04-15 05:35 26.48563 -80.18258 4637 ft 230 kts 216°
2026-04-15 05:35 26.47316 -80.19384 4443 ft 230 kts 216°
2026-04-15 05:35 26.46074 -80.20506 4244 ft 230 kts 216°
2026-04-15 05:35 26.44830 -80.21629 4047 ft 229 kts 216°
2026-04-15 05:36 26.43590 -80.22748 3844 ft 229 kts 216°
2026-04-15 05:36 26.42770 -80.23488 3711 ft 228 kts 216°
2026-04-15 05:36 26.41535 -80.24601 3514 ft 228 kts 216°
2026-04-15 05:36 26.40299 -80.25717 3310 ft 228 kts 216°
2026-04-15 05:37 26.39064 -80.26830 3108 ft 228 kts 216°
2026-04-15 05:37 26.37826 -80.27946 2905 ft 229 kts 216°
2026-04-15 05:37 26.36583 -80.29066 2702 ft 229 kts 216°
2026-04-15 05:37 26.35344 -80.30182 2498 ft 229 kts 216°
2026-04-15 05:38 26.34106 -80.31296 2297 ft 228 kts 215°
2026-04-15 05:38 26.32756 -80.32113 1994 ft 223 kts 189°
2026-04-15 05:38 26.31273 -80.32035 1976 ft 212 kts 161°
2026-04-15 05:38 26.30057 -80.31218 1986 ft 203 kts 133°
2026-04-15 05:39 26.29092 -80.30123 2003 ft 185 kts 130°
2026-04-15 05:39 26.28251 -80.29174 1989 ft 164 kts 130°
2026-04-15 05:39 26.27462 -80.28275 1989 ft 161 kts 130°
2026-04-15 05:39 26.26675 -80.27376 1990 ft 162 kts 130°
2026-04-15 05:40 26.25969 -80.26407 1971 ft 160 kts 115°
2026-04-15 05:40 26.25703 -80.25243 1985 ft 158 kts 92°
2026-04-15 05:40 26.25893 -80.24046 1979 ft 159 kts 70°
2026-04-15 05:40 26.26535 -80.23026 1983 ft 165 kts 49°
2026-04-15 05:41 26.27363 -80.22147 1999 ft 163 kts 48°
2026-04-15 05:41 26.28173 -80.21265 1997 ft 164 kts 49°
2026-04-15 05:41 26.28988 -80.20377 1993 ft 164 kts 48°
2026-04-15 05:41 26.29799 -80.19501 1854 ft 154 kts 48°
2026-04-15 05:42 26.30489 -80.18761 1706 ft 125 kts 49°
2026-04-15 05:42 26.31098 -80.18097 1598 ft 121 kts 50°
2026-04-15 05:42 26.31698 -80.17444 1505 ft 121 kts 50°
2026-04-15 05:42 26.32304 -80.16786 1376 ft 123 kts 49°
2026-04-15 05:43 26.32907 -80.16132 1223 ft 118 kts 49°
2026-04-15 05:43 26.33507 -80.15473 1088 ft 127 kts 50°
2026-04-15 05:43 26.34143 -80.14768 912 ft 129 kts 52°
2026-04-15 05:43 26.34779 -80.14084 724 ft 126 kts 50°
2026-04-15 05:44 26.35411 -80.13414 574 ft 126 kts 49°
2026-04-15 05:44 26.36044 -80.12733 378 ft 127 kts 50°
2026-04-15 05:44 26.36673 -80.12053 258 ft 124 kts 50°
2026-04-15 05:44 26.37285 -80.11382 62 ft 123 kts 50°
2026-04-15 05:45 26.37852 -80.10772 26 ft 101 kts 50°
2026-04-15 05:45 26.38245 -80.10341 22 ft 48 kts 44°
2026-04-15 05:45 26.38404 -80.10168 20 ft 20 kts 44°
2026-04-15 05:45 26.38475 -80.10127 20 ft 9 kts 330°
2026-04-15 05:46 26.38487 -80.10180 24 ft 7 kts 227°
2026-04-15 05:46 26.38449 -80.10222 21 ft 8 kts 225°
2026-04-15 05:46 26.38401 -80.10274 22 ft 12 kts 224°
2026-04-15 05:46 26.38332 -80.10349 22 ft 15 kts 224°
2026-04-15 05:47 26.38260 -80.10427 22 ft 13 kts 224°
2026-04-15 05:47 26.38226 -80.10482 22 ft 7 kts 295°
2026-04-15 05:47 26.38240 -80.10518 26 ft 4 kts 241°
2026-04-15 05:47 26.38224 -80.10549 25 ft 4 kts 288°
2026-04-15 05:48 26.38240 -80.10570 29 ft 4 kts 310°
2026-04-15 05:48 26.38268 -80.10600 26 ft 6 kts 327°
2026-04-15 05:48 26.38294 -80.10583 24 ft 3 kts 43°
2026-04-15 05:48 26.38295 -80.10582 24 ft 0 kts 43°